Theta_e
302 302 302 302 302 301 300 300 300 300 299 299 301 302 301 300 302 302 302 303 304 307 307 307 307 308 310 309 308 310 313 318 320 327 328 327 324 327 332 332 332 333 336 339 335 334 336 330 332 334 330 330 330 331
302 302 302 302 301 302 301 300 300 300 300 299 300 299 300 301 302 303 302 303 303 304 306 307 307 307 306 309 308 309 309 315 318 320 321 323 329 325 326 336 332 336 335 337 334 331 328 329 328 329 329 329 329 332
302 302 302 302 301 301 302 301 300 301 301 301 301 300 302 302 301 303 302 301 304 306 306 306 307 311 311 307 307 309 310 311 315 314 316 322 329 325 330 331 333 334 332 332 331 328 329 327 326 326 328 327 327 327
301 301 302 301 301 301 301 302 301 300 300 301 300 300 300 300 301 303 300 300 304 305 306 307 310 311 311 310 310 310 310 309 311 314 314 319 325 322 325 327 329 331 333 332 330 330 326 322 322 321 323 327 328 327
301 301 302 300 300 300 301 301 301 300 300 301 300 300 302 301 303 301 300 300 303 304 306 307 306 310 311 311 310 310 310 311 313 312 314 317 318 319 317 324 326 322 333 332 330 329 323 321 319 320 321 321 322 322
301 302 301 300 300 302 302 301 301 300 300 300 300 301 301 301 302 300 306 304 305 306 306 306 308 310 311 310 310 310 312 312 313 311 312 313 316 319 321 323 322 322 330 327 328 319 319 321 321 321 321 321 321 321
301 302 301 301 301 301 302 302 301 301 300 301 300 302 301 301 301 301 306 307 306 307 306 309 308 313 312 311 312 312 311 313 312 311 311 310 313 317 317 321 317 320 325 324 322 320 319 320 318 319 320 320 320 320
302 302 303 301 302 302 302 303 301 301 301 301 301 301 301 301 299 300 306 306 306 305 305 307 308 310 313 311 311 314 312 312 312 312 312 311 313 315 318 315 318 317 318 319 318 319 318 318 319 319 320 320 320 319
302 302 303 301 301 302 302 301 301 301 301 300 301 301 300 301 303 307 308 307 306 305 307 308 310 312 312 311 312 314 314 312 313 308 310 318 316 317 316 315 317 318 318 318 318 318 318 318 317 316 315 315 316 318
303 301 301 301 301 301 301 301 300 301 300 301 300 302 303 305 307 307 306 305 305 305 305 306 309 309 309 312 310 313 312 312 313 311 321 321 322 319 320 320 320 320 319 317 317 317 316 316 317 316 317 317 318 318
302 301 301 301 301 301 300 300 301 300 301 301 303 304 305 307 306 306 308 308 309 308 309 308 308 306 311 312 313 313 312 310 314 315 321 324 324 319 321 321 320 320 319 319 319 319 319 319 320 320 320 319 319 319
301 301 302 301 301 301 301 301 301 301 303 303 303 305 306 306 307 306 304 307 308 310 309 309 308 309 312 312 312 314 313 312 314 313 321 325 322 320 320 320 320 320 320 320 320 320 319 319 320 320 320 320 319 319
301 302 301 301 301 301 301 301 303 302 302 304 303 304 305 306 298 306 308 308 308 309 310 310 309 311 312 312 311 312 315 315 314 321 324 322 319 319 320 319 319 320 319 319 320 319 320 322 320 318 318 319 320 321
301 301 301 301 301 301 301 302 301 302 303 303 303 302 304 304 308 308 310 311 311 311 310 312 312 311 312 311 311 314 313 314 321 322 323 319 319 320 318 316 318 319 318 317 317 318 317 316 316 317 317 320 319 319
301 301 301 301 301 301 301 302 302 302 303 304 305 307 309 308 308 310 310 311 311 310 311 311 312 312 310 312 312 312 316 321 321 322 320 319 318 318 317 317 317 317 316 316 316 316 316 316 316 316 317 318 318 318
300 301 301 301 301 301 302 302 303 304 305 305 306 308 307 308 309 310 311 311 311 312 311 311 310 310 312 310 314 318 319 320 318 316 318 318 317 316 316 316 316 316 315 314 314 315 315 315 314 314 316 318 319 319
301 301 301 301 301 302 303 304 305 305 305 305 306 308 308 308 308 310 310 311 310 312 310 310 311 312 308 311 317 316 318 316 316 317 317 316 317 317 316 316 316 316 316 316 315 315 314 314 314 315 315 317 318 320
301 301 301 301 302 303 304 305 305 306 305 307 308 308 308 308 310 311 310 309 311 311 311 312 311 312 314 317 316 314 314 315 315 315 316 317 317 316 316 315 316 316 315 316 316 314 314 314 315 315 315 315 316 318
301 301 302 303 303 304 304 305 305 306 307 307 308 309 309 309 309 309 310 308 309 310 311 311 310 311 314 313 312 313 313 315 315 315 315 316 316 316 315 316 316 316 316 316 315 315 315 315 314 315 314 314 314 315
301 302 304 304 305 304 306 306 307 307 307 308 308 309 309 309 309 309 309 309 309 310 309 309 310 312 313 313 313 314 314 315 315 314 314 314 315 314 315 315 315 315 316 316 316 315 315 314 313 314 313 313 312 314
304 303 303 304 305 305 305 306 307 306 307 307 307 308 309 309 310 309 309 310 309 307 307 313 313 313 313 313 313 312 312 314 315 315 315 315 315 315 316 317 316 316 315 315 315 315 312 311 311 312 313 312 312 312
304 304 304 304 304 305 305 306 305 307 306 306 307 309 309 308 308 307 308 310 310 312 311 311 311 310 310 310 310 311 313 314 315 315 315 315 316 316 315 314 314 314 314 313 313 313 310 311 311 312 311 311 312 312
304 304 304 304 304 304 304 305 307 306 305 307 308 307 306 308 307 308 308 309 309 310 311 312 312 313 314 315 315 315 315 315 315 316 316 315 315 314 311 311 310 310 310 310 309 309 310 310 311 311 311 312 312 312
305 305 304 304 303 303 305 305 306 306 307 306 304 305 306 306 307 308 308 310 313 314 315 315 315 314 315 316 315 315 315 316 316 312 314 314 313 309 308 308 308 308 307 306 306 306 306 306 306 306 306 307 307 307
305 306 305 305 304 304 306 307 307 306 307 307 306 306 307 307 309 311 313 313 314 314 314 314 315 315 315 315 315 313 313 313 313 312 311 311 311 310 307 306 305 305 304 303 303 302 302 303 303 303 303 304 304 304
304 306 305 307 306 306 307 308 307 309 309 310 308 310 309 310 314 314 312 315 315 315 315 315 315 314 313 314 312 311 311 311 309 309 307 307 306 306 305 305 304 303 302 302 301 300 302 302 302 302 302 302 304 306
308 310 308 309 309 309 310 312 311 309 311 311 310 312 313 314 315 314 315 314 315 314 314 314 313 309 309 310 308 308 307 307 307 307 307 306 305 305 304 303 302 301 301 300 299 301 301 301 301 300 300 302 301 301
311 314 313 312 310 313 313 313 313 313 313 314 314 314 314 314 314 314 314 314 314 314 314 312 309 308 308 308 307 307 306 306 305 306 306 305 304 303 302 302 301 300 299 299 300 301 301 300 300 299 299 299 298 299
315 317 315 314 314 314 313 311 311 313 313 314 312 312 314 315 315 312 311 311 310 310 309 308 307 307 307 307 306 306 305 304 304 304 304 303 303 302 301 300 299 299 299 299 301 301 301 300 300 299 299 298 298 300
316 317 317 316 314 314 315 314 313 314 314 314 315 315 314 313 313 313 312 311 311 309 308 308 307 308 307 306 305 305 303 303 303 302 301 301 300 299 299 299 299 299 298 299 300 300 300 300 300 300 299 299 298 298
317 317 318 317 315 316 317 317 315 314 315 315 314 314 313 311 311 311 310 309 309 309 309 309 308 306 306 305 304 302 302 301 301 300 300 300 299 299 299 300 300 300 299 299 300 299 299 299 298 298 297 296 296 296
317 317 316 316 317 317 318 317 316 315 315 315 316 315 315 313 311 307 307 309 310 308 306 306 305 305 304 302 301 301 300 299 299 299 298 298 298 299 299 298 298 298 298 297 297 296 295 294 293 292 291 291 290 290
317 317 318 317 318 318 318 316 317 317 317 316 315 314 316 310 309 311 311 311 308 305 304 304 304 303 301 300 299 299 298 298 297 297 297 297 296 296 296 296 296 295 294 293 293 292 291 290 290 289 289 289 289 289
Wind_Speed
26 25 25 26 24 24 21 20 19 17 18 20 18 14 14 15 13 15 16 10 10 8 30 34 28 14 12 6 2 11 10 3 3 4 2 3 2 3 3 6 6 2 2 3 2 4 2 19 5 6 3 10 12 24
25 26 24 23 21 21 20 18 18 16 14 16 13 13 14 13 13 14 17 9 8 14 21 22 35 39 36 30 16 7 5 4 3 2 2 0 2 3 4 3 3 4 1 5 2 3 4 10 18 21 23 31 30 36
25 25 23 21 20 17 19 17 16 15 14 13 12 14 12 9 13 12 16 8 8 13 31 25 12 9 11 22 21 7 3 6 4 4 3 1 3 2 2 2 3 3 6 4 4 4 7 14 25 27 28 29 25 23
26 24 22 19 16 17 18 16 14 14 13 11 11 11 13 11 11 11 14 7 7 7 5 9 6 10 3 9 14 19 19 19 15 6 1 2 2 1 4 2 1 3 5 8 6 4 6 24 24 26 26 22 19 17
22 21 19 16 14 16 15 12 14 12 12 9 9 7 8 8 8 11 13 9 10 7 4 15 23 5 8 15 13 15 15 12 6 2 2 3 3 4 2 2 4 6 5 7 5 10 21 9 19 22 28 24 22 17
20 18 15 14 12 10 7 9 9 10 8 7 6 6 7 6 7 6 1 5 11 7 6 4 8 7 3 6 8 12 10 9 7 5 3 3 4 5 3 3 6 11 23 29 12 31 31 28 27 29 29 25 22 20
18 14 12 10 10 7 9 10 8 7 7 6 6 7 6 6 7 6 3 10 10 6 4 5 6 4 3 8 5 8 11 6 5 4 1 3 3 4 4 3 10 19 32 29 27 24 23 15 17 19 20 15 11 10
11 10 8 7 7 8 9 7 5 6 5 5 5 6 6 7 8 9 3 1 6 6 4 3 4 6 4 3 3 5 5 5 4 2 2 3 8 7 4 9 8 25 35 32 29 24 20 17 13 13 12 10 10 10
10 7 5 4 4 4 4 4 3 3 3 5 4 5 5 3 1 4 3 3 4 6 3 2 3 3 5 3 1 5 5 2 1 2 3 4 4 5 3 7 21 23 16 20 21 18 15 15 13 13 15 15 16 17
9 7 1 2 0 1 0 1 1 3 1 1 2 2 2 1 2 2 3 2 4 4 4 3 4 3 4 4 2 0 2 2 2 2 8 3 4 8 17 18 18 20 20 14 13 19 15 13 13 13 13 14 15 18
6 5 6 6 5 4 5 4 3 4 3 3 3 3 3 2 1 2 2 3 2 2 5 6 6 3 2 2 2 2 1 0 3 2 4 2 3 5 13 15 16 15 14 15 12 10 8 9 11 12 11 10 12 16
3 4 5 5 4 4 3 7 7 5 4 4 4 3 3 1 1 1 2 3 3 3 4 3 4 5 3 3 2 6 2 1 3 1 4 3 2 9 12 14 13 12 11 10 8 6 7 7 7 7 10 12 13 12
12 8 6 6 7 5 7 10 10 2 5 3 4 3 3 1 5 0 4 3 3 5 4 4 1 3 3 7 3 3 3 1 3 4 3 2 4 7 9 9 8 7 7 6 4 3 4 4 6 9 9 6 4 5
13 12 11 7 7 6 10 7 6 8 5 4 4 5 2 4 2 2 2 2 9 10 10 1 4 4 4 3 1 3 1 3 3 3 3 0 4 8 10 11 13 12 11 11 13 11 9 10 11 9 8 5 6 7
12 11 9 8 7 8 7 4 6 9 4 3 3 4 3 8 6 6 6 11 15 11 6 3 5 5 3 3 3 2 4 4 4 3 2 4 4 5 5 6 7 8 8 9 10 9 11 12 13 12 10 6 7 5
9 9 12 9 10 8 7 7 9 6 4 5 5 4 14 6 10 14 15 18 20 10 6 6 3 3 4 2 5 6 3 4 2 2 4 4 4 3 4 5 7 8 9 8 7 9 11 13 16 16 13 10 8 7
8 15 11 9 7 8 11 10 6 5 6 4 5 8 9 6 7 9 12 17 16 9 3 3 4 2 2 4 4 3 3 2 3 6 5 5 2 4 4 5 7 9 11 11 11 12 12 11 12 11 14 11 10 4
13 12 10 11 13 11 12 11 5 6 5 4 2 11 11 9 11 11 18 22 13 7 4 2 2 6 4 3 2 1 4 3 3 6 2 5 6 6 5 7 8 10 9 12 14 12 8 12 14 9 9 12 11 9
13 10 11 13 14 9 8 7 6 4 3 8 11 13 7 9 11 11 9 16 13 8 3 4 5 3 2 2 1 2 3 4 7 8 1 1 3 7 7 8 8 9 10 13 16 14 12 14 13 10 6 7 8 9
7 9 11 12 11 6 5 4 6 4 5 8 12 15 6 10 11 9 11 14 13 5 7 4 2 2 3 3 4 3 4 6 8 8 1 1 4 9 8 10 11 12 12 12 11 11 14 10 10 7 8 8 8 9
7 9 8 10 5 5 3 5 3 5 6 5 14 11 6 9 10 10 10 14 7 4 3 5 8 5 3 3 4 7 6 6 8 7 8 7 10 11 13 19 19 17 14 12 13 9 7 6 6 5 4 9 10 10
10 11 10 6 3 3 1 4 5 7 4 7 7 9 4 5 7 8 14 4 4 3 2 2 4 7 10 12 10 9 7 5 4 6 8 10 13 17 20 15 12 9 8 9 10 4 5 5 5 7 9 9 10 10
8 9 6 4 3 3 3 5 3 6 4 9 7 2 3 5 8 13 4 3 4 4 6 9 8 8 7 5 5 4 2 6 9 11 7 3 10 11 8 9 8 7 9 11 11 10 8 6 6 8 9 10 11 11
9 4 3 4 4 4 5 4 4 4 4 4 3 3 3 5 10 6 3 6 6 9 10 9 9 10 9 10 7 8 9 10 8 7 6 6 4 7 4 3 4 7 9 11 14 16 17 18 18 18 17 17 16 15
3 2 3 1 1 1 2 2 1 1 1 2 1 2 2 1 0 2 2 5 7 6 4 4 6 7 9 11 12 12 11 5 3 3 3 0 2 6 3 7 11 13 15 19 22 23 20 17 15 14 13 14 16 17
2 5 6 4 3 2 3 1 2 2 2 2 2 1 2 1 1 2 2 5 5 6 7 8 8 15 13 7 8 10 8 5 2 3 3 3 6 9 11 12 13 14 18 23 24 18 12 11 12 13 14 14 12 10
3 3 7 8 4 4 3 3 2 2 3 4 2 1 1 3 3 3 5 7 7 11 11 11 11 12 12 9 10 9 8 8 9 9 7 7 9 8 9 10 12 16 23 25 18 10 9 13 14 12 12 10 12 14
6 4 5 10 11 10 3 3 3 4 3 4 9 2 3 4 2 2 3 4 7 8 10 10 11 8 8 8 8 10 13 14 14 9 5 4 6 7 10 12 17 21 19 13 12 9 13 13 12 13 15 15 16 17
5 6 4 3 0 4 2 0 2 3 2 3 4 1 1 1 5 11 16 15 10 11 13 11 10 8 11 13 15 18 19 20 16 12 9 8 9 11 13 17 18 18 19 16 10 12 13 13 14 14 13 14 15 11
6 14 5 4 2 2 3 4 3 11 14 14 13 12 13 14 12 9 9 8 6 10 10 10 11 14 17 19 22 22 22 16 10 11 12 14 14 14 15 16 18 18 14 14 16 17 19 19 19 18 15 10 10 13
7 11 7 4 3 2 6 9 4 12 13 13 17 21 20 18 21 17 12 9 8 8 9 13 15 17 20 23 24 22 15 9 11 15 17 15 12 15 18 16 15 13 14 16 19 19 17 17 17 17 18 18 16 18
3 7 3 3 4 7 6 2 3 6 7 10 6 6 13 12 12 24 21 19 21 15 10 11 15 18 21 20 16 9 9 15 18 19 19 19 18 15 14 15 14 12 13 13 14 16 18 19 20 21 21 21 21 21
1 3 3 3 3 3 2 1 1 5 10 6 10 11 5 5 3 7 10 15 16 6 11 13 16 20 21 17 14 15 16 17 18 20 21 19 14 11 11 13 14 15 15 16 17 17 18 19 19 20 20 19 18 17
Wind_Direction
296 298 298 296 294 289 294 288 292 285 280 275 280 271 282 272 273 279 286 233 251 261 273 268 270 271 292 283 295 321 341 294 357 60 109 228 241 289 88 153 142 83 44 16 358 73 55 350 357 96 205 84 91 82
295 293 295 295 301 292 285 293 285 282 273 274 280 279 273 269 272 269 282 215 262 262 262 275 280 279 271 260 270 303 279 286 343 68 0 348 292 355 22 103 211 65 169 143 202 178 279 342 70 95 96 89 79 76
300 295 291 290 290 305 291 284 292 285 276 274 269 272 282 277 264 267 281 280 280 282 289 275 277 321 248 243 249 231 259 339 325 17 190 66 329 90 300 280 102 110 114 125 71 345 309 58 81 81 80 74 65 59
297 295 288 284 290 293 300 275 286 276 275 268 272 265 271 272 259 272 270 252 249 276 277 293 275 289 244 200 215 232 257 288 291 300 96 122 314 194 221 223 161 220 131 131 101 168 96 56 74 81 81 79 72 57
297 293 285 278 277 306 296 276 287 269 266 270 272 262 280 266 277 283 273 242 226 250 289 292 307 275 239 220 231 243 251 257 275 238 135 206 241 295 354 95 1 338 174 159 182 140 106 51 69 82 78 79 81 71
304 299 284 282 279 293 289 282 287 273 253 258 257 263 289 271 292 283 160 145 189 225 276 291 311 292 231 194 237 225 237 250 252 253 211 238 209 191 89 84 311 3 106 106 128 101 96 94 90 85 86 72 64 73
306 292 277 279 261 272 297 276 286 262 240 248 249 269 281 270 278 245 236 160 198 242 268 298 299 289 246 225 248 224 220 235 234 260 34 311 304 59 59 72 322 68 94 105 113 107 80 96 81 78 80 81 68 56
324 310 272 259 256 268 283 256 271 238 246 247 258 277 278 277 274 243 221 176 214 263 256 270 274 317 191 221 233 185 202 209 211 299 70 8 5 39 59 329 29 78 90 88 92 97 101 95 77 56 47 25 2 353
335 317 281 224 266 292 240 249 252 259 250 262 287 290 290 237 232 348 314 289 255 241 273 258 271 288 335 261 246 199 211 78 64 53 36 60 359 44 300 315 49 61 80 91 86 76 62 52 30 11 1 346 340 332
338 340 203 185 242 89 125 73 315 191 247 276 317 324 268 203 327 296 256 244 216 225 228 247 265 269 323 355 335 105 20 112 82 32 83 65 78 55 56 58 57 55 57 63 59 40 35 29 11 356 339 328 321 315
17 64 85 109 122 80 77 78 112 104 77 28 340 288 313 279 247 247 242 217 206 260 222 244 248 264 327 19 303 54 154 65 86 222 99 84 69 356 41 55 55 52 49 50 47 37 15 358 345 336 324 307 308 308
102 101 98 122 130 84 82 96 89 70 18 344 323 319 351 319 278 340 260 288 212 247 229 218 268 243 325 326 46 338 99 49 85 186 91 101 49 17 37 47 47 42 42 39 25 10 356 343 340 326 314 309 303 292
84 94 73 84 115 123 108 108 49 57 358 51 4 340 350 318 24 40 340 328 313 313 306 264 280 350 342 7 58 57 39 11 127 42 71 62 25 47 64 61 63 61 52 54 34 16 17 14 347 345 345 337 316 293
76 81 83 75 89 90 134 101 45 21 11 355 350 1 43 321 0 323 296 269 306 305 346 230 50 41 352 29 344 68 4 45 73 61 79 124 26 67 74 69 84 80 79 58 57 65 48 28 14 7 340 328 330 338
71 74 67 73 74 104 107 81 11 353 346 354 9 20 339 322 310 9 333 324 353 3 21 54 42 25 355 37 2 3 48 70 35 77 94 118 83 87 93 57 47 48 39 34 33 27 17 13 9 8 4 349 338 346
72 84 70 79 89 75 52 14 359 12 15 21 22 339 333 360 347 14 5 355 10 23 56 45 49 42 24 27 36 9 59 49 66 71 99 64 53 73 63 43 28 22 20 22 21 10 10 7 7 8 0 358 5 20
104 75 79 81 53 27 3 5 20 28 21 25 357 340 327 295 283 325 355 358 8 26 24 14 44 13 311 47 38 22 52 88 89 53 36 30 21 13 10 8 7 358 354 346 340 343 351 359 3 357 9 15 15 12
82 78 64 30 3 355 15 18 23 32 27 6 324 330 339 332 343 18 21 20 20 20 15 42 1 37 36 53 52 13 40 60 25 355 16 55 64 40 16 6 360 353 352 349 346 348 341 341 338 346 348 355 8 18
81 58 24 5 359 5 5 21 13 6 304 331 349 1 346 351 13 12 18 14 12 22 39 48 54 55 51 65 89 10 5 7 343 344 235 57 14 9 2 357 351 351 352 350 340 334 331 348 359 349 335 343 346 330
36 19 12 9 16 9 5 13 353 337 350 334 351 351 2 6 6 32 17 7 9 28 38 52 77 83 108 73 31 6 340 342 342 346 38 60 1 358 3 359 352 352 356 358 346 320 322 327 323 330 340 353 358 351
356 355 354 1 21 31 22 350 343 348 327 329 351 352 334 354 18 11 6 359 15 33 58 104 107 99 60 0 330 329 319 311 330 328 332 353 8 3 2 355 349 353 353 351 346 346 341 342 336 338 334 330 327 330
332 339 340 348 354 350 6 343 315 327 318 322 339 355 10 358 349 3 337 346 345 26 63 46 346 327 319 313 306 307 302 306 322 339 341 347 343 357 353 356 8 13 352 356 358 356 338 336 329 321 314 315 315 311
332 337 335 340 334 338 345 346 338 351 6 332 349 6 2 345 339 337 327 317 295 337 326 328 335 343 347 345 356 30 14 343 335 338 340 320 347 359 48 74 74 57 52 49 38 31 25 4 343 338 330 321 313 310
327 330 352 358 355 324 336 337 345 344 347 353 11 350 348 337 345 12 320 304 330 19 32 41 53 81 59 56 39 0 0 345 16 38 80 84 117 129 116 75 18 9 9 350 339 336 331 327 322 317 315 313 312 312
325 332 358 12 287 261 279 289 294 343 309 253 276 224 184 173 18 262 281 293 330 18 42 15 3 350 341 354 32 49 45 63 98 59 65 23 217 201 285 328 338 347 350 348 347 342 334 324 320 321 323 323 324 327
246 198 184 234 269 202 194 271 235 231 304 312 268 314 354 290 27 23 281 343 355 13 31 40 47 48 42 32 53 59 59 54 46 33 54 356 326 322 325 332 340 346 350 347 341 333 327 336 346 346 345 349 349 344
300 214 218 204 248 279 290 248 215 208 237 210 207 179 345 37 12 280 324 29 66 94 81 90 77 69 83 95 87 61 49 25 11 360 338 317 318 331 344 349 352 348 342 338 332 324 342 347 346 346 354 349 340 340
258 250 213 190 198 208 230 218 207 229 234 172 146 171 155 163 237 18 342 80 106 121 133 117 109 87 59 46 27 10 3 358 353 348 306 301 323 329 333 338 335 334 337 332 327 332 339 336 336 340 343 339 333 333
276 317 243 245 219 195 280 354 305 358 128 140 99 83 20 73 35 117 114 124 113 116 119 113 100 73 44 22 10 2 354 349 353 357 349 332 323 322 322 321 325 333 334 328 318 326 322 315 320 322 322 327 327 315
335 343 358 29 46 328 332 331 147 109 115 120 126 121 107 86 79 96 118 126 80 77 79 57 30 11 13 7 359 355 351 351 349 348 343 338 334 322 317 320 328 330 318 309 312 316 318 317 314 314 321 315 315 325
353 13 345 329 278 322 0 356 190 162 148 146 142 126 110 85 61 57 75 84 75 52 20 14 9 9 3 354 350 347 352 341 333 336 335 332 320 313 320 328 336 331 323 322 324 324 322 324 329 334 334 332 326 319
25 7 30 323 316 325 304 236 159 167 170 147 94 98 81 73 47 39 46 34 20 15 31 15 6 2 352 348 347 346 336 334 333 332 331 327 331 330 326 327 330 328 328 328 329 331 334 337 338 339 339 339 338 336
220 48 119 245 262 284 281 300 148 95 63 49 37 15 49 105 96 23 3 1 348 13 7 2 352 347 346 343 338 336 341 337 330 327 328 336 345 346 343 338 335 334 336 337 339 339 340 341 341 338 336 335 334 333